TRANSIT 5B-1 DEB, 3166

Orbit data source: Space-Track

TRANSIT 5B-1 DEB, 3166 is space debris in LEO originally from a launch on Sat, 28 Sep 1963 UTC launched from the Air Force Western Test Range (AFWTR). Debris objects in space refer to the collection of defunct objects orbiting the Earth. Examples of debris include non-operational satellites, rocket bodies, and fragments generated from explosions, collisions, or faulty payload assembly.

Loading next visibility...
Identifier
3166, 1963-038H
Orbit
LEO
Country
Flag of USUS
Related business
Manufacturer
Unknown
Mission
Spacecraft
Bus & Motor
Unknown
Mass
Unknown
Launch date (UTC)
1963-09-28 (62 years ago)
Launch vehicle
Unknown
Launch site
Air Force Western Test Range (AFWTR)
Object type
Payload
Rocket body
Debris
Shape & HBR
Unknown
Radar Cross Section
Medium (>0.1 m² and <1 m²)

Expand to show TLE details & history
Last TLE update: 15 hours ago

TLE from 15 hours ago
0 TRANSIT 5B-1 DEB
1 03166U 63038H   25243.29878066  .00000106  00000-0  16337-3 0  9998
2 03166  89.9809 333.8690 0043233 124.8851 297.3730 13.44921556552628
Epoch: 2025-08-31T07:10Z
TLE epoch observation values (Epoch: 2025-08-31T07:10:14.649Z)
Latitude
61.90426°
Longitude
-113.37717°
Altitude
1,086.947 km
Speed
7.322 km/s
True Right ascension
22h 15m 37s
True Declination
61° 46' 03"
Sunlit
Object was in daylight at epoch
Visualization orbit readout
Latitude
Unknown
Longitude
Unknown
Altitude
Unknown
Speed
Unknown
Apparent Right ascension
Unknown
Apparent Declination
Unknown
Sunlit
N/A
Visualization observer readout
Local Sidereal Time
13:44:13
Azimuth
Unknown
Elevation
Unknown
Doppler factor
Unknown
Orbital elements
Apogee altitude
1,120.338 km
Perigee altitude
1,055.78 km
Semi-major axis
7,466.196 km
Eccentricity
0.00432
Inclination
89.9809°
RAAN
333.869°
Arg. of periapsis
124.8851°
True anomaly
296.93197°
Mean anomaly
297.373°
Eccentric anomaly
297.15259°
Mean motion
3.3643 °/min
Orbital period
107.01 mins
BSTAR
0.00016337
Loading maneuver chart data...
Computing Atmospheric mass density...

Documentation

Showing up to 5 results
|